Pine Bluff, AR

12:08 PM CST on February 22, 2017 (GMT -0600)
Grider

Weather History for KPBF - June, 2012

Change the Weather History Date:

Wednesday, June 27, 2012

  Actual Average Record
Temperature  
Mean Temperature 78 °F 81 °F  
Max Temperature 96 °F 91 °F 103 °F (1954)
Min Temperature 59 °F 71 °F 57 °F (1968)
Degree Days  
Heating Degree Days 0 0  
Month to date heating degree days 0 0  
Since 1 June heating degree days 0 0  
Since 1 July heating degree days 2207 2881  
Cooling Degree Days 13 16  
Month to date cooling degree days 358 373  
Year to date cooling degree days 860 680  
Since 1 June cooling degree days 358 373  
Growing Degree Days 28 (Base 50)    
Moisture  
Dew Point 59 °F    
Average Humidity 53    
Maximum Humidity 84    
Minimum Humidity 22    
Precipitation  
Precipitation 0.00 in 0.10 in 1.40 in (1926)
Month to date precipitation 1.33 3.27  
Year to date precipitation 15.84 26.47  
Snow  
Snow 0.00 in 0.00 in - ()
Month to date snowfall 0.0 0.0  
Since 1 June snowfall 0.0 0.0  
Since 1 July snowfall 0.5 3.1  
Snow Depth 0.00 in    
Sea Level Pressure  
Sea Level Pressure 29.93 in    
Wind  
Wind Speed 4 mph (East)    
Max Wind Speed 10 mph    
Max Gust Speed 14 mph    
Visibility 10 miles    
Events      
T = Trace of Precipitation, MM = Missing Value Source: NWS Daily Summary

Daily Weather History Graph

Daily Weather History Graph

Search for Another Location

Airport or City:

Trip Planner

Search our weather history database for the weather conditions in past years. The results will help you decide how hot, cold, wet, or windy it might be!

Date:

Astronomy

Jun. 27, 2012 Rise Set
Actual Time 5:58 AM CDT 8:23 PM CDT
Civil Twilight 5:29 AM CDT 8:52 PM CDT
Nautical Twilight 4:53 AM CDT 9:28 PM CDT
Astronomical Twilight 4:13 AM CDT 10:08 PM CDT
Moon 1:58 PM CDT (6/27) 12:45 AM CDT (6/27)
Length of Visible Light 15h 23m
Length of Day
14h 25m
First Quarter, 56% of the Moon is Illuminated
Jun 27
First Quarter
Jul 3
Full
Jul 10
Last Quarter
Jul 18
New
Jul 26
First Quarter

Hourly Weather History & Observations

Time (CDT) Temp. Heat Index Dew Point Humidity Pressure Visibility Wind Dir Wind Speed Gust Speed Precip Events Conditions
12:53 AM 66.0 °F - 59.0 °F 78% 29.87 in 10.0 mi Calm Calm - N/A   Clear
1:53 AM 68.0 °F - 57.9 °F 70% 29.88 in 10.0 mi Calm Calm - N/A   Clear
2:53 AM 64.9 °F - 57.9 °F 78% 29.87 in 10.0 mi Calm Calm - N/A   Clear
3:53 AM 63.0 °F - 57.9 °F 84% 29.88 in 10.0 mi Calm Calm - N/A   Clear
4:53 AM 62.1 °F - 57.0 °F 84% 29.89 in 10.0 mi NNW 3.5 mph - N/A   Clear
5:53 AM 63.0 °F - 57.0 °F 81% 29.91 in 10.0 mi Calm Calm - N/A   Clear
6:53 AM 63.0 °F - 57.9 °F 84% 29.93 in 10.0 mi NNW 3.5 mph - N/A   Clear
7:53 AM 71.1 °F - 61.0 °F 70% 29.95 in 10.0 mi Calm Calm - N/A   Clear
8:53 AM 75.9 °F - 57.0 °F 52% 29.96 in 10.0 mi NE 3.5 mph - N/A   Clear
9:53 AM 80.1 °F 80.6 °F 57.9 °F 47% 29.97 in 10.0 mi East 4.6 mph - N/A   Clear
10:53 AM 84.0 °F 83.5 °F 57.9 °F 41% 29.97 in 10.0 mi East 4.6 mph - N/A   Clear
11:53 AM 88.0 °F 87.1 °F 59.0 °F 37% 29.97 in 10.0 mi East 5.8 mph - N/A   Clear
12:53 PM 91.0 °F 89.2 °F 55.9 °F 30% 29.97 in 10.0 mi East 6.9 mph - N/A   Clear
1:53 PM 93.0 °F 91.1 °F 55.0 °F 28% 29.96 in 10.0 mi ENE 6.9 mph - N/A   Clear
2:53 PM 95.0 °F - 50.0 °F 22% 29.95 in 10.0 mi East 9.2 mph - N/A   Clear
3:53 PM 95.0 °F - 52.0 °F 23% 29.94 in 10.0 mi East 10.4 mph - N/A   Clear
4:53 PM 95.0 °F 92.7 °F 54.0 °F 25% 29.94 in 10.0 mi East 9.2 mph - N/A   Clear
5:53 PM 93.9 °F 92.9 °F 57.9 °F 30% 29.93 in 10.0 mi East 9.2 mph - N/A   Clear
6:53 PM 91.0 °F 90.5 °F 60.1 °F 35% 29.93 in 10.0 mi ESE 6.9 mph - N/A   Clear
7:53 PM 84.9 °F 87.1 °F 66.0 °F 53% 29.93 in 10.0 mi East 5.8 mph - N/A   Clear
8:53 PM 79.0 °F - 64.9 °F 62% 29.94 in 10.0 mi ESE 5.8 mph - N/A   Clear
9:53 PM 75.0 °F - 66.9 °F 76% 29.95 in 10.0 mi SSE 3.5 mph - N/A   Clear
10:53 PM 75.0 °F - 66.0 °F 73% 29.96 in 10.0 mi Calm Calm - N/A   Clear
11:53 PM 73.9 °F - 66.0 °F 76% 29.97 in 10.0 mi Calm Calm - N/A   Clear